Regional Weather Roundup
Issued by NWS Northern Indiana

Home | Current Version | Previous Version | Graphics & Text | Print | Product List | Glossary On
Versions: 1 2 3 4 5 6 7 8 9 10 11 12 13 14 15 16 17 18 19 20 21 22 23 24 25 26 27 28 29 30 31 32 33 34 35 36 37 38 39 40 41 42 43 44 45 46 47 48 49 50
000
ASUS43 KIWX 060910
RWRIWX

KIWX WEATHER ROUNDUP
NATIONAL WEATHER SERVICE NORTHERN INDIANA
500 AM EDT WED MAY 06 2015

NOTE: "FAIR" INDICATES FEW OR NO CLOUDS BELOW 12,000 FEET WITH NO
SIGNIFICANT WEATHER AND/OR OBSTRUCTIONS TO VISIBILITY.

* THESE STATIONS ARE NOT UNDER NWS QUALITY CONTROL. THEY ALSO MAY NOT
  REPORT WEATHER SUCH AS PRECIPITATION OR FOG.

INZ001>027-061000-
NORTHERN INDIANA

CITY           SKY/WX    TMP DP  RH WIND       PRES   REMARKS
GARY*          FOG       49  47  90 CALM      30.19S VSB 1/4
VALPARAISO     CLOUDY    57  56  96 E5        30.18S FOG
MICHIGAN CITY* CLOUDY    55  55 100 E3        30.19S FOG
LAPORTE*       CLOUDY    58  58 100 E7        30.19S FOG
KNOX*          MOCLDY    54  50  87 E5        30.18R
SOUTH BEND     CLOUDY    55  54  96 MISG      30.20S FOG
GOSHEN         CLOUDY    54  52  93 E7        30.20S FOG
MONTICELLO*    CLOUDY    57  57 100 E6        30.16F FOG
LOGANSPORT*    CLEAR     54  52  94 E8        30.18F FOG
ROCHESTER*     CLOUDY    55  55 100 E9        30.18F FOG
WARSAW*        CLOUDY    52  52 100 SE9       30.20S FOG
ANGOLA*        CLOUDY    52  39  62 E5        30.21S VSB 1/4
FORT WAYNE     FOG       52  52 100 E8        30.21F VSB 1/2
HUNTINGTON*    FOG       52  51  97 E7        30.20S VSB 1/2
MARION*        CLEAR     52  51  95 E7        30.20S FOG

$$
INZ028>050-061000-
CENTRAL INDIANA

CITY           SKY/WX    TMP DP  RH WIND       PRES   REMARKS
LAFAYETTE      CLEAR     57  57 100 CALM      30.15F FOG
KOKOMO*        CLEAR     54  52  94 SE8       30.18S
MUNCIE*        PTCLDY    55  53  93 E5        30.19F FOG
INDIANAPOLIS   MOCLDY    65  52  62 CALM      30.16S

$$
MIZ043>046-050>051-056>058-064>065-071>073-077>080-061000-
SOUTHWEST LOWER MICHIGAN

CITY           SKY/WX    TMP DP  RH WIND       PRES   REMARKS
BATTLE CREEK   CLOUDY    52  50  93 E3        30.23S FOG
BENTON HARBOR  FOG       52  52 100 E6        30.20S VSB 3/4
COLDWATER*     FOG       51  51  99 SE5       30.22S VSB 3/4
HILLSDALE*     FOG       52  52 100 E5        30.22S VSB<1/4
HOLLAND        CLOUDY    53  51  93 E6        30.22S FOG
GRAND RAPIDS   CLOUDY    53  50  89 E8        30.23S FOG
KALAMAZOO      CLOUDY    52  50  93 E5        30.22S FOG
STURGIS*       FOG       52  52 100 E5        30.21S VSB 1/2
THREE RIVERS*  FOG       52  51  97 E3        30.22S VSB 3/4

$$
OHZ001>008-015>018-024>025-061000-
NORTHWEST OHIO

CITY           SKY/WX    TMP DP  RH WIND       PRES   REMARKS
WAUSEON*       FOG       52  52 100 NE7       30.23S VSB<1/4
DEFIANCE       FOG       53  52  96 E5        30.23R VSB 1/4
FINDLAY        FOG       54  52  93 E6        30.20F VSB 1/2
TOLEDO EXPRESS FOG       52  52 100 E5        30.23R VSB 3/4
TOLEDO METCALF CLOUDY    51  49  92 NE3       30.24S FOG
LIMA           FOG       54  54 100 E6        30.21S VSB 1/4

$$
AND FOR LAKE MICHIGAN COASTAL AND OPEN LAKE BUOY OBSERVATIONS

STATION/POSITION TEMP    WIND        PRES    VSBY  WAVE
                 AIR SEA DIR/SP/G                  HT/PER
                 (F)     (DEG/KT/KT) (MB)    (MI)  (FT/S)
CALUMET HARBOR    46     340/  5/  7   N/A
MICHIGAN CITY     57     100/  6/  8   N/A
BURNS HARBOR      51      40/  6/  7 1022.4S
SAINT JOSEPH      54      20/  1/  3 1023.0R
4 MI NW BRIDGMAN  54 50  110/  4/  6   N/A           1
MICHIGAN CITY     51 51   50/  4/  6   N/A           1

$$
&&


USA.gov is the U.S. government's official web portal to all federal, state and local government web resources and services.